Home > Weather > Raba > Past weeks

Flag for Indonesia Weather for the Past 2 Weeks in Raba, Sumbawa, Indonesia

Now
77 °F

Passing clouds.


Feels Like: 78 °F
Forecast: 77 / 89 °F
Wind: 2 mph from North

Location: Ujung Pandang / Hasanuddin

Current Time: Feb 7, 2016 at 7:27:35 AM

Latest Report: Feb 7, 2016 at 7:00 AM


Visibility: 6 mi

Pressure: 29.80 "Hg

Humidity: 100%

Dew point: 77 °F

Location of RabaLocation

Historic Weather in Raba — Graph

°F

Raba Temperature Yesterday

Maximum temperature yesterday: 90 °F (at 10:00 AM)
Minimum temperature yesterday: 77 °F (at 5:30 AM)
Average temperature yesterday: 81 °F

High & Low Weather Summary for the Past Weeks

 TemperatureHumidityPressure
High91 °F (Jan 23, 11:30 AM)100% (Jan 23, 6:00 AM)29.98 "Hg (Jan 23, 6:00 AM)
Low75 °F (Jan 24, 4:00 AM)52% (Jan 25, 2:00 PM)29.71 "Hg (Jan 31, 2:00 PM)
Average82 °F91%29.83 "Hg
* Reported Jan 23 6:00 AM — Feb 7 6:00 AM, Raba, Weather by CustomWeather, © 2016

Note: Actual official high and low records may vary slightly from our data, if they occured in-between our weather recording intervals... More about our weather records

Advertising

Raba Weather History for the Previous 24 Hours

 ConditionsComfort  
Time TempWeatherWind HumidityBarometerVisibility
6:00 AM
Sun, Feb 7
77 °FPassing clouds.5 mph100%29.80 "Hg6 mi
5:00 AM77 °FPassing clouds.5 mph100%29.77 "Hg4 mi
4:30 AM77 °FPassing clouds.3 mph100%29.77 "Hg4 mi
4:00 AM77 °FWarm.3 mph100%29.77 "HgN/A
3:30 AM77 °FPassing clouds.2 mph100%29.77 "Hg4 mi
3:00 AM79 °FPassing clouds.3 mph100%29.77 "Hg4 mi
2:30 AM79 °FPassing clouds.3 mph100%29.80 "Hg4 mi
2:00 AM79 °FPassing clouds.3 mph100%29.80 "Hg4 mi
1:30 AM79 °FPassing clouds.2 mph100%29.83 "Hg4 mi
1:00 AM79 °FLight rain. Passing clouds.1 mph100%29.83 "Hg4 mi
12:30 AM79 °FLight rain. Passing clouds.2 mph100%29.83 "Hg4 mi
12:00 AM79 °FLight rain. Passing clouds.3 mph100%29.83 "Hg4 mi
11:30 PM
Sat, Feb 6
79 °FPassing clouds.2 mph100%29.83 "Hg4 mi
11:00 PM79 °FPassing clouds.3 mph100%29.86 "Hg4 mi
10:30 PM79 °FLight rain. Passing clouds.2 mph100%29.83 "Hg4 mi
10:00 PM79 °FLight rain. Passing clouds.2 mph100%29.83 "Hg4 mi
9:30 PM79 °FLight rain. Passing clouds.5 mph100%29.83 "Hg4 mi
9:00 PM79 °FLight rain. Passing clouds.2 mph100%29.83 "Hg4 mi
8:30 PM79 °FLight rain. Passing clouds.3 mph100%N/A4 mi
8:00 PM79 °FLight rain. Passing clouds.3 mph100%N/A4 mi
7:30 PM79 °FLight rain. Passing clouds.3 mph100%29.80 "Hg4 mi
7:00 PM79 °FLight rain. Passing clouds.3 mph100%N/A4 mi
6:30 PM79 °FLight rain. Passing clouds.5 mph100%N/A4 mi
6:00 PM79 °FScattered clouds.7 mph100%29.77 "Hg5 mi
5:30 PM79 °FThunderstorms. Scattered clouds.6 mph100%29.77 "Hg3 mi
5:00 PM81 °FThunderstorms. Scattered clouds.6 mph100%29.74 "Hg3 mi
4:30 PM81 °FThunderstorms. Scattered clouds.7 mph100%29.74 "Hg3 mi
4:00 PM84 °FThunderstorms. Partly sunny.5 mph94%N/A3 mi
3:30 PM86 °FLight rain. Partly sunny.5 mph89%N/A4 mi
3:00 PM86 °FScattered clouds.5 mph89%29.74 "Hg5 mi
2:30 PM86 °FScattered clouds.6 mph84%29.74 "Hg5 mi
2:00 PM86 °FScattered clouds.8 mph89%29.77 "Hg5 mi
1:30 PM88 °FScattered clouds.8 mph79%29.77 "HgN/A
1:00 PM90 °FScattered clouds.12 mph75%29.77 "HgN/A
12:00 PM90 °FScattered clouds.5 mph75%29.80 "HgN/A
11:30 AM90 °FLight rain. Scattered clouds.2 mph75%29.80 "Hg5 mi
11:00 AM86 °FLight rain. Scattered clouds.2 mph84%29.83 "Hg5 mi
10:00 AM90 °FScattered clouds.2 mph75%29.83 "HgN/A
9:30 AM88 °FScattered clouds.3 mph84%29.83 "HgN/A
8:30 AM84 °FPassing clouds.3 mph84%29.83 "HgN/A
8:00 AM82 °FPassing clouds.5 mph89%29.80 "HgN/A
7:30 AM81 °FPassing clouds.3 mph94%29.80 "HgN/A
7:00 AM79 °FPassing clouds.1 mph100%29.80 "HgN/A
Weather by CustomWeather, © 2016

See weather overviewHow to use our weather pages